CZ-6A DEB, 54970

Orbit data source: Space-Track

CZ-6A DEB, 54970 is space debris in SSO originally from a launch on Fri, 11 Nov 2022 UTC launched from the Taiyaun Space Center, China (TSC). Debris objects in space refer to the collection of defunct objects orbiting the Earth. Examples of debris include non-operational satellites, rocket bodies, and fragments generated from explosions, collisions, or faulty payload assembly.

Loading next visibility...
Identifier
54970, 2022-151TK
Orbit
SSO
Country
Flag of CNCN / PRC
Related business
Manufacturer
SAST
Mission
Spacecraft
Bus & Motor
Unknown
Mass
Unknown
Launch date (UTC)
2022-11-11 (3 years ago)
Launch vehicle
Unknown
Launch site
Taiyaun Space Center, China (TSC)
Object type
Payload
Rocket body
Debris
Shape & HBR
Unknown shape, 0.3 m
Radar Cross Section
Medium (>0.1 m² and <1 m²)

Expand to show TLE details & history
Last TLE update: 9 hours ago

TLE from 9 hours ago
0 CZ-6A DEB
1 54970U 22151TK  26130.48130125  .00000885  00000-0  54397-3 0  9994
2 54970  98.8675 123.6518 0068573 114.2863 246.5488 14.06996572178877
Epoch: 2026-05-10T11:33Z
TLE epoch observation values (Epoch: 2026-05-10T11:33:04.427Z)
Latitude
-0.00006°
Longitude
82.0996°
Altitude
892.628 km
Speed
7.396 km/s
True Right ascension
08h 14m 36s
True Declination
0° 00' 00"
Sunlit
Object was in daylight at epoch
Visualization orbit readout
Latitude
Unknown
Longitude
Unknown
Altitude
Unknown
Speed
Unknown
Apparent Right ascension
Unknown
Apparent Declination
Unknown
Sunlit
N/A
Visualization observer readout
Local Sidereal Time
04:34:14
Azimuth
Unknown
Elevation
Unknown
Doppler factor
Unknown
Orbital elements
Apogee altitude
916.532 km
Perigee altitude
817.17 km
Semi-major axis
7,244.988 km
Eccentricity
0.00686
Inclination
98.8675°
RAAN
123.6518°
Arg. of periapsis
114.2863°
True anomaly
245.83039°
Mean anomaly
246.5488°
Eccentric anomaly
246.18935°
Mean motion
3.51955 °/min
Orbital period
102.29 mins
BSTAR
0.00054397
Loading maneuver chart data...
Computing Atmospheric mass density...
Loading historical data...
Loading historical data...
Loading historical data...
Loading historical data...
Loading historical data...
Loading historical data...
Loading historical data...

Documentation

Showing up to 5 results
|